Terug naar catalogus

STARLINK-34983

ActiefCommunicatieVLEO
NORAD 65411·PAYLOAD·🇺🇸 United States

Gelanceerd Aug 31, 2025 vanaf Cape Canaveral Space Force Station

Loading…

Volgende Passages (komende 24 uur)

TLE

VersSource: CelesTrak SupGP

Epoch: Sep 15, 2026, 03:15 UTC

1 65411C 25192H   26258.13590278 -.00028416  00000+0 -91390-3 0  2589
2 65411  53.1590  70.6549 0001134  79.7712 285.4675 15.31711806    16

Volg STARLINK-34983 in realtime met AllMySat

Download on the App Store